Time,TemperatureF,DewpointF,PressureIn,WindDirection,WindDirectionDegrees,WindSpeedMPH,WindSpeedGustMPH,Humidity,HourlyPrecipIn,Conditions,Clouds,dailyrainin,SoftwareType,DateUTC
2013-11-05 00:00:00,28.5,20.0,29.93,WNW,296,5.0,6.0,70,0.00,,,0.00,Wunderground v.1.15,2013-11-05 07:00:00,
2013-11-05 00:10:00,29.2,19.9,29.92,North,356,5.0,5.0,68,0.00,,,0.00,Wunderground v.1.15,2013-11-05 07:10:00,
2013-11-05 00:15:00,28.9,20.0,29.93,NNE,19,4.0,5.0,69,0.00,,,0.00,Wunderground v.1.15,2013-11-05 07:15:00,
2013-11-05 00:26:00,28.4,20.5,29.94,West,273,3.0,5.0,72,0.00,,,0.00,Wunderground v.1.15,2013-11-05 07:26:00,
2013-11-05 00:35:00,27.9,20.4,29.93,North,349,3.0,3.0,73,0.00,,,0.00,Wunderground v.1.15,2013-11-05 07:35:00,
2013-11-05 00:40:00,27.9,20.7,29.94,WNW,283,3.0,3.0,74,0.00,,,0.00,Wunderground v.1.15,2013-11-05 07:40:00,
2013-11-05 00:50:00,27.8,21.2,29.94,North,1,3.0,3.0,76,0.00,,,0.00,Wunderground v.1.15,2013-11-05 07:50:00,
2013-11-05 00:55:00,27.9,21.3,29.94,North,11,3.0,3.0,76,0.00,,,0.00,Wunderground v.1.15,2013-11-05 07:55:00,
2013-11-05 01:00:00,27.9,21.3,29.94,North,9,3.0,3.0,76,0.00,,,0.00,Wunderground v.1.15,2013-11-05 08:00:00,
2013-11-05 01:10:00,28.0,21.7,29.94,West,260,3.0,3.0,77,0.00,,,0.00,Wunderground v.1.15,2013-11-05 08:10:00,
2013-11-05 01:15:00,28.1,21.8,29.94,SSW,195,3.0,4.0,77,0.00,,,0.00,Wunderground v.1.15,2013-11-05 08:15:00,
2013-11-05 01:25:00,27.9,21.9,29.94,SW,231,5.0,6.0,78,0.00,,,0.00,Wunderground v.1.15,2013-11-05 08:25:00,
2013-11-05 01:30:00,27.9,21.9,29.94,SW,228,6.0,6.0,78,0.00,,,0.00,Wunderground v.1.15,2013-11-05 08:30:00,
2013-11-05 01:40:00,28.0,22.3,29.95,WSW,238,7.0,8.0,79,0.00,,,0.00,Wunderground v.1.15,2013-11-05 08:40:00,
2013-11-05 01:50:00,28.2,22.5,29.95,SW,235,4.0,7.0,79,0.00,,,0.00,Wunderground v.1.15,2013-11-05 08:50:00,
2013-11-05 01:55:00,28.5,22.5,29.95,SW,235,5.0,7.0,78,0.00,,,0.00,Wunderground v.1.15,2013-11-05 08:55:00,
2013-11-05 02:00:00,28.7,22.7,29.94,SW,235,5.0,5.0,78,0.00,,,0.00,Wunderground v.1.15,2013-11-05 09:00:00,
2013-11-05 02:10:00,29.6,22.3,29.94,WNW,297,5.0,5.0,74,0.00,,,0.00,Wunderground v.1.15,2013-11-05 09:10:00,
2013-11-05 02:20:00,29.8,22.5,29.95,WNW,297,3.0,4.0,74,0.00,,,0.00,Wunderground v.1.15,2013-11-05 09:20:00,
2013-11-05 02:25:00,29.8,22.5,29.95,NNW,346,4.0,7.0,74,0.00,,,0.00,Wunderground v.1.15,2013-11-05 09:25:00,
2013-11-05 02:30:00,29.8,22.2,29.96,NNW,336,7.0,7.0,73,0.00,,,0.00,Wunderground v.1.15,2013-11-05 09:30:00,
2013-11-05 02:35:00,29.8,22.2,29.95,North,359,8.0,8.0,73,0.00,,,0.00,Wunderground v.1.15,2013-11-05 09:35:00,
2013-11-05 02:40:00,29.8,22.2,29.96,NNW,342,7.0,7.0,73,0.00,,,0.00,Wunderground v.1.15,2013-11-05 09:40:00,
2013-11-05 02:50:00,29.8,21.5,29.95,NNE,25,8.0,12.0,71,0.00,,,0.00,Wunderground v.1.15,2013-11-05 09:50:00,
2013-11-05 02:55:00,29.8,21.2,29.96,North,354,9.0,12.0,70,0.00,,,0.00,Wunderground v.1.15,2013-11-05 09:55:00,
2013-11-05 03:00:00,29.8,20.9,29.95,NNW,345,8.0,8.0,69,0.00,,,0.00,Wunderground v.1.15,2013-11-05 10:00:00,
2013-11-05 03:10:00,29.7,20.4,29.95,NW,326,8.0,8.0,68,0.00,,,0.00,Wunderground v.1.15,2013-11-05 10:10:00,
2013-11-05 03:15:00,29.6,20.3,29.96,North,350,7.0,8.0,68,0.00,,,0.00,Wunderground v.1.15,2013-11-05 10:15:00,
2013-11-05 03:25:00,29.6,19.6,29.96,North,5,8.0,14.0,66,0.00,,,0.00,Wunderground v.1.15,2013-11-05 10:25:00,
2013-11-05 03:30:00,29.7,19.4,29.95,North,6,8.0,8.0,65,0.00,,,0.00,Wunderground v.1.15,2013-11-05 10:30:00,
2013-11-05 03:35:00,29.7,19.4,29.96,SW,219,7.0,8.0,65,0.00,,,0.00,Wunderground v.1.15,2013-11-05 10:35:00,
2013-11-05 03:40:00,29.7,19.4,29.97,North,354,6.0,6.0,65,0.00,,,0.00,Wunderground v.1.15,2013-11-05 10:40:00,
2013-11-05 03:50:00,29.3,19.7,29.97,NNE,21,5.0,5.0,67,0.00,,,0.00,Wunderground v.1.15,2013-11-05 10:50:00,
2013-11-05 03:55:00,29.0,20.1,29.97,NNE,18,5.0,8.0,69,0.00,,,0.00,Wunderground v.1.15,2013-11-05 10:55:00,
2013-11-05 04:05:00,28.6,20.4,29.97,NNW,337,6.0,6.0,71,0.00,,,0.00,Wunderground v.1.15,2013-11-05 11:05:00,
2013-11-05 04:10:00,28.4,20.2,29.98,NNW,345,6.0,7.0,71,0.00,,,0.00,Wunderground v.1.15,2013-11-05 11:10:00,
2013-11-05 04:15:00,28.3,20.1,29.99,NNW,342,7.0,7.0,71,0.00,,,0.00,Wunderground v.1.15,2013-11-05 11:15:00,
2013-11-05 04:25:00,28.3,20.1,29.99,North,353,6.0,8.0,71,0.00,,,0.00,Wunderground v.1.15,2013-11-05 11:25:00,
2013-11-05 04:30:00,28.3,20.1,29.99,North,1,6.0,7.0,71,0.00,,,0.00,Wunderground v.1.15,2013-11-05 11:30:00,
2013-11-05 04:40:00,28.2,19.7,29.99,NNW,348,6.0,7.0,70,0.00,,,0.00,Wunderground v.1.15,2013-11-05 11:40:00,
2013-11-05 04:50:00,28.0,19.5,29.99,NNW,340,5.0,6.0,70,0.00,,,0.00,Wunderground v.1.15,2013-11-05 11:50:00,
2013-11-05 05:00:00,27.7,19.5,30.00,NNE,28,5.0,5.0,71,0.00,,,0.00,Wunderground v.1.15,2013-11-05 12:00:00,
2013-11-05 05:10:00,27.6,19.4,30.00,NNE,18,7.0,7.0,71,0.00,,,0.00,Wunderground v.1.15,2013-11-05 12:10:00,
2013-11-05 05:20:00,27.6,19.4,30.00,North,9,6.0,6.0,71,0.00,,,0.00,Wunderground v.1.15,2013-11-05 12:20:00,
2013-11-05 05:25:00,27.6,19.4,30.01,NNE,20,6.0,6.0,71,0.00,,,0.00,Wunderground v.1.15,2013-11-05 12:25:00,
2013-11-05 05:35:00,27.5,19.3,30.01,NNE,25,5.0,6.0,71,0.00,,,0.00,Wunderground v.1.15,2013-11-05 12:35:00,
2013-11-05 05:40:00,27.6,19.4,30.01,NNE,25,4.0,4.0,71,0.00,,,0.00,Wunderground v.1.15,2013-11-05 12:40:00,
2013-11-05 05:50:00,27.7,19.5,30.02,NNE,25,3.0,3.0,71,0.00,,,0.00,Wunderground v.1.15,2013-11-05 12:50:00,
2013-11-05 05:55:00,27.5,19.7,30.02,SSW,198,3.0,3.0,72,0.00,,,0.00,Wunderground v.1.15,2013-11-05 12:55:00,
2013-11-05 06:00:00,27.5,19.3,30.02,SSW,198,2.0,2.0,71,0.00,,,0.00,Wunderground v.1.15,2013-11-05 13:00:00,
2013-11-05 06:10:00,27.8,19.3,30.02,SSW,198,0.0,0.0,70,0.00,,,0.00,Wunderground v.1.15,2013-11-05 13:10:00,
2013-11-05 06:15:00,28.0,19.5,30.02,SSW,198,1.0,1.0,70,0.00,,,0.00,Wunderground v.1.15,2013-11-05 13:15:00,
2013-11-05 06:25:00,27.9,19.4,30.03,South,172,2.0,3.0,70,0.00,,,0.00,Wunderground v.1.15,2013-11-05 13:25:00,
2013-11-05 06:30:00,27.7,19.8,30.03,South,174,3.0,3.0,72,0.00,,,0.00,Wunderground v.1.15,2013-11-05 13:30:00,
2013-11-05 06:35:00,27.5,19.3,30.03,South,174,2.0,3.0,71,0.00,,,0.00,Wunderground v.1.15,2013-11-05 13:35:00,
2013-11-05 06:40:00,27.4,19.6,30.04,South,174,3.0,3.0,72,0.00,,,0.00,Wunderground v.1.15,2013-11-05 13:40:00,
2013-11-05 06:50:00,27.4,19.2,30.04,SSE,160,3.0,3.0,71,0.00,,,0.00,Wunderground v.1.15,2013-11-05 13:50:00,
2013-11-05 06:55:00,27.3,19.5,30.04,South,190,3.0,5.0,72,0.00,,,0.00,Wunderground v.1.15,2013-11-05 13:55:00,
2013-11-05 07:00:00,27.2,19.7,30.04,South,189,4.0,4.0,73,0.00,,,0.00,Wunderground v.1.15,2013-11-05 14:00:00,
2013-11-05 07:10:00,27.3,19.8,30.04,SSE,165,2.0,2.0,73,0.00,,,0.00,Wunderground v.1.15,2013-11-05 14:10:00,
2013-11-05 07:15:00,27.3,20.1,30.04,SSE,165,2.0,3.0,74,0.00,,,0.00,Wunderground v.1.15,2013-11-05 14:15:00,
2013-11-05 07:25:00,27.2,20.0,30.05,South,184,3.0,4.0,74,0.00,,,0.00,Wunderground v.1.15,2013-11-05 14:25:00,
2013-11-05 07:30:00,27.1,19.9,30.05,South,183,4.0,4.0,74,0.00,,,0.00,Wunderground v.1.15,2013-11-05 14:30:00,
2013-11-05 07:35:00,27.1,20.2,30.05,South,183,4.0,4.0,75,0.00,,,0.00,Wunderground v.1.15,2013-11-05 14:35:00,
2013-11-05 07:40:00,27.1,20.2,30.06,South,181,4.0,4.0,75,0.00,,,0.00,Wunderground v.1.15,2013-11-05 14:40:00,
2013-11-05 07:50:00,27.1,19.9,30.06,South,191,4.0,4.0,74,0.00,,,0.00,Wunderground v.1.15,2013-11-05 14:50:00,
2013-11-05 07:55:00,27.3,19.8,30.06,South,184,3.0,4.0,73,0.00,,,0.00,Wunderground v.1.15,2013-11-05 14:55:00,
2013-11-05 08:00:00,27.5,19.3,30.07,South,185,3.0,4.0,71,0.00,,,0.00,Wunderground v.1.15,2013-11-05 15:00:00,
2013-11-05 08:05:00,27.6,19.1,30.07,South,184,4.0,6.0,70,0.00,,,0.00,Wunderground v.1.15,2013-11-05 15:05:00,
2013-11-05 08:10:00,27.7,19.2,30.06,South,183,5.0,6.0,70,0.00,,,0.00,Wunderground v.1.15,2013-11-05 15:10:00,
2013-11-05 08:20:00,28.1,19.2,30.07,South,184,4.0,4.0,69,0.00,,,0.00,Wunderground v.1.15,2013-11-05 15:20:00,
2013-11-05 08:30:00,28.4,19.9,30.08,South,191,2.0,2.0,70,0.00,,,0.00,Wunderground v.1.15,2013-11-05 15:30:00,
2013-11-05 08:35:00,28.6,20.1,30.08,SSW,194,3.0,4.0,70,0.00,,,0.00,Wunderground v.1.15,2013-11-05 15:35:00,
2013-11-05 08:40:00,29.2,20.3,30.07,SSW,193,3.0,3.0,69,0.00,,,0.00,Wunderground v.1.15,2013-11-05 15:40:00,
2013-11-05 08:50:00,29.8,20.5,30.08,SSE,168,2.0,2.0,68,0.00,,,0.00,Wunderground v.1.15,2013-11-05 15:50:00,
2013-11-05 08:55:00,30.1,20.5,30.07,SSE,162,3.0,3.0,67,0.00,,,0.00,Wunderground v.1.15,2013-11-05 15:55:00,
2013-11-05 09:00:00,30.1,20.5,30.07,South,169,3.0,3.0,67,0.00,,,0.00,Wunderground v.1.15,2013-11-05 16:00:00,
2013-11-05 09:10:00,30.4,20.7,30.07,South,177,4.0,4.0,67,0.00,,,0.00,Wunderground v.1.15,2013-11-05 16:10:00,
2013-11-05 09:15:00,31.0,21.3,30.07,SSE,154,3.0,4.0,67,0.00,,,0.00,Wunderground v.1.15,2013-11-05 16:15:00,
2013-11-05 09:25:00,32.1,22.0,30.07,SSE,160,3.0,5.0,66,0.00,,,0.00,Wunderground v.1.15,2013-11-05 16:25:00,
2013-11-05 09:30:00,32.2,21.0,30.07,South,170,2.0,2.0,63,0.00,,,0.00,Wunderground v.1.15,2013-11-05 16:30:00,
2013-11-05 09:35:00,33.3,22.4,30.07,East,85,3.0,5.0,64,0.00,,,0.00,Wunderground v.1.15,2013-11-05 16:35:00,
2013-11-05 09:40:00,33.7,21.7,30.07,ESE,106,4.0,5.0,61,0.00,,,0.00,Wunderground v.1.15,2013-11-05 16:40:00,
2013-11-05 09:50:00,33.5,21.5,30.07,ENE,58,5.0,6.0,61,0.00,,,0.00,Wunderground v.1.15,2013-11-05 16:50:00,
2013-11-05 09:55:00,33.9,22.2,30.07,East,79,5.0,8.0,62,0.00,,,0.00,Wunderground v.1.15,2013-11-05 16:55:00,
2013-11-05 10:00:00,34.0,22.3,30.07,ENE,64,6.0,7.0,62,0.00,,,0.00,Wunderground v.1.15,2013-11-05 17:00:00,
2013-11-05 10:10:00,33.9,23.4,30.07,NE,49,8.0,8.0,65,0.00,,,0.00,Wunderground v.1.15,2013-11-05 17:10:00,
2013-11-05 10:15:00,33.9,23.4,30.07,ENE,77,8.0,8.0,65,0.00,,,0.00,Wunderground v.1.15,2013-11-05 17:15:00,
2013-11-05 10:25:00,34.5,23.2,30.07,East,85,9.0,9.0,63,0.00,,,0.00,Wunderground v.1.15,2013-11-05 17:25:00,
2013-11-05 10:30:00,35.0,23.7,30.07,ENE,68,8.0,9.0,63,0.00,,,0.00,Wunderground v.1.15,2013-11-05 17:30:00,
2013-11-05 10:35:00,35.3,23.6,30.07,NE,53,8.0,9.0,62,0.00,,,0.00,Wunderground v.1.15,2013-11-05 17:35:00,
2013-11-05 10:40:00,35.2,23.9,30.07,ENE,71,8.0,8.0,63,0.00,,,0.00,Wunderground v.1.15,2013-11-05 17:40:00,
2013-11-05 10:50:00,35.0,24.4,30.07,ENE,64,9.0,10.0,65,0.00,,,0.00,Wunderground v.1.15,2013-11-05 17:50:00,
2013-11-05 10:55:00,34.9,23.6,30.07,NE,47,9.0,12.0,63,0.00,,,0.00,Wunderground v.1.15,2013-11-05 17:55:00,
2013-11-05 11:00:00,34.8,23.5,30.07,NE,56,9.0,9.0,63,0.00,,,0.00,Wunderground v.1.15,2013-11-05 18:00:00,
2013-11-05 11:10:00,35.3,23.6,30.06,ESE,107,9.0,9.0,62,0.00,,,0.00,Wunderground v.1.15,2013-11-05 18:10:00,
2013-11-05 11:15:00,35.7,23.2,30.06,NE,56,10.0,10.0,60,0.00,,,0.00,Wunderground v.1.15,2013-11-05 18:15:00,
2013-11-05 11:25:00,36.0,23.0,30.06,East,79,8.0,12.0,59,0.00,,,0.00,Wunderground v.1.15,2013-11-05 18:25:00,
2013-11-05 11:30:00,36.7,23.3,30.06,ENE,77,8.0,8.0,58,0.00,,,0.00,Wunderground v.1.15,2013-11-05 18:30:00,
2013-11-05 11:40:00,36.6,23.2,30.06,NE,50,8.0,10.0,58,0.00,,,0.00,Wunderground v.1.15,2013-11-05 18:40:00,
2013-11-05 11:50:00,36.9,22.2,30.05,ESE,103,9.0,9.0,55,0.00,,,0.00,Wunderground v.1.15,2013-11-05 18:50:00,
2013-11-05 12:00:00,37.0,22.3,30.05,ENE,61,8.0,13.0,55,0.00,,,0.00,Wunderground v.1.15,2013-11-05 19:00:00,
2013-11-05 12:10:00,36.2,20.2,30.04,East,82,10.0,10.0,52,0.00,,,0.00,Wunderground v.1.15,2013-11-05 19:10:00,
2013-11-05 12:20:00,36.6,21.1,30.04,East,84,8.0,10.0,53,0.00,,,0.00,Wunderground v.1.15,2013-11-05 19:20:00,
2013-11-05 12:25:00,37.3,19.9,30.04,SE,142,6.0,10.0,49,0.00,,,0.00,Wunderground v.1.15,2013-11-05 19:25:00,
2013-11-05 12:41:00,39.3,20.2,30.03,South,184,2.0,5.0,46,0.00,,,0.00,Wunderground v.1.15,2013-11-05 19:41:00,
2013-11-05 12:50:00,40.1,19.4,30.03,South,184,5.0,7.0,43,0.00,,,0.00,Wunderground v.1.15,2013-11-05 19:50:00,
2013-11-05 12:55:00,39.3,17.0,30.03,South,183,5.0,7.0,40,0.00,,,0.00,Wunderground v.1.15,2013-11-05 19:55:00,
2013-11-05 13:00:00,39.2,16.9,30.03,South,170,6.0,6.0,40,0.00,,,0.00,Wunderground v.1.15,2013-11-05 20:00:00,
2013-11-05 13:10:00,38.0,15.8,30.03,West,269,5.0,13.0,40,0.00,,,0.00,Wunderground v.1.15,2013-11-05 20:10:00,
2013-11-05 13:15:00,37.3,5.5,30.02,WSW,255,10.0,28.0,26,0.00,,,0.00,Wunderground v.1.15,2013-11-05 20:15:00,
2013-11-05 13:25:00,38.1,4.4,30.02,SW,235,27.0,30.0,24,0.00,,,0.00,Wunderground v.1.15,2013-11-05 20:25:00,
2013-11-05 13:30:00,38.3,4.6,30.02,WSW,242,27.0,32.0,24,0.00,,,0.00,Wunderground v.1.15,2013-11-05 20:30:00,
2013-11-05 13:35:00,38.7,4.9,30.02,WSW,245,32.0,32.0,24,0.00,,,0.00,Wunderground v.1.15,2013-11-05 20:35:00,
2013-11-05 13:40:00,39.6,4.8,30.02,WSW,240,29.0,29.0,23,0.00,,,0.00,Wunderground v.1.15,2013-11-05 20:40:00,
2013-11-05 13:50:00,41.1,14.1,30.03,East,101,13.0,13.0,33,0.00,,,0.00,Wunderground v.1.15,2013-11-05 20:50:00,
2013-11-05 13:55:00,41.0,12.6,30.04,SSE,152,6.0,13.0,31,0.00,,,0.00,Wunderground v.1.15,2013-11-05 20:55:00,
2013-11-05 14:00:00,41.1,14.1,30.04,South,176,6.0,6.0,33,0.00,,,0.00,Wunderground v.1.15,2013-11-05 21:00:00,
2013-11-05 14:10:00,41.8,14.8,30.05,South,186,7.0,8.0,33,0.00,,,0.00,Wunderground v.1.15,2013-11-05 21:10:00,
2013-11-05 14:20:00,41.6,13.9,30.05,SSE,156,5.0,5.0,32,0.00,,,0.00,Wunderground v.1.15,2013-11-05 21:20:00,
2013-11-05 14:25:00,42.0,14.9,30.05,South,172,3.0,5.0,33,0.00,,,0.00,Wunderground v.1.15,2013-11-05 21:25:00,
2013-11-05 14:30:00,42.1,13.6,30.05,SSE,149,4.0,5.0,31,0.00,,,0.00,Wunderground v.1.15,2013-11-05 21:30:00,
2013-11-05 14:40:00,42.1,13.6,30.06,SSE,166,4.0,4.0,31,0.00,,,0.00,Wunderground v.1.15,2013-11-05 21:40:00,
2013-11-05 14:50:00,42.7,13.4,30.06,SSE,150,5.0,5.0,30,0.00,,,0.00,Wunderground v.1.15,2013-11-05 21:50:00,
2013-11-05 15:00:00,41.8,12.6,30.06,SSE,162,3.0,3.0,30,0.00,,,0.00,Wunderground v.1.15,2013-11-05 22:00:00,
2013-11-05 15:10:00,41.9,11.9,30.07,SSW,198,3.0,3.0,29,0.00,,,0.00,Wunderground v.1.15,2013-11-05 22:10:00,
2013-11-05 15:15:00,41.9,12.7,30.06,South,183,2.0,6.0,30,0.00,,,0.00,Wunderground v.1.15,2013-11-05 22:15:00,
2013-11-05 15:25:00,41.6,10.9,30.07,SE,136,4.0,6.0,28,0.00,,,0.00,Wunderground v.1.15,2013-11-05 22:25:00,
2013-11-05 15:35:00,40.9,1.7,30.07,SW,215,8.0,12.0,19,0.00,,,0.00,Wunderground v.1.15,2013-11-05 22:35:00,
2013-11-05 15:40:00,39.5,-0.6,30.06,SW,235,20.0,24.0,18,0.00,,,0.00,Wunderground v.1.15,2013-11-05 22:40:00,
2013-11-05 15:50:00,38.4,-2.7,30.06,SW,220,28.0,28.0,17,0.00,,,0.00,Wunderground v.1.15,2013-11-05 22:50:00,
2013-11-05 15:55:00,38.2,-2.9,30.07,SSE,158,25.0,28.0,17,0.00,,,0.00,Wunderground v.1.15,2013-11-05 22:55:00,
2013-11-05 16:00:00,38.1,-1.8,30.07,SW,228,20.0,32.0,18,0.00,,,0.00,Wunderground v.1.15,2013-11-05 23:00:00,
2013-11-05 16:10:00,38.1,-1.8,30.08,SW,225,19.0,19.0,18,0.00,,,0.00,Wunderground v.1.15,2013-11-05 23:10:00,
2013-11-05 16:15:00,37.7,-0.9,30.08,WSW,255,17.0,19.0,19,0.00,,,0.00,Wunderground v.1.15,2013-11-05 23:15:00,
2013-11-05 16:25:00,37.3,-1.3,30.08,SW,225,20.0,20.0,19,0.00,,,0.00,Wunderground v.1.15,2013-11-05 23:25:00,
2013-11-05 16:30:00,37.1,-1.4,30.08,WSW,250,20.0,34.0,19,0.00,,,0.00,Wunderground v.1.15,2013-11-05 23:30:00,
2013-11-05 16:35:00,36.4,-0.9,30.08,WSW,256,20.0,34.0,20,0.00,,,0.00,Wunderground v.1.15,2013-11-05 23:35:00,
2013-11-05 16:40:00,36.1,-1.2,30.09,WSW,238,22.0,24.0,20,0.00,,,0.00,Wunderground v.1.15,2013-11-05 23:40:00,
2013-11-05 16:50:00,35.8,-2.5,30.09,SW,217,22.0,25.0,19,0.00,,,0.00,Wunderground v.1.15,2013-11-05 23:50:00,
2013-11-05 16:55:00,35.7,-2.6,30.09,SW,226,23.0,25.0,19,0.00,,,0.00,Wunderground v.1.15,2013-11-05 23:55:00,
2013-11-05 17:00:00,35.5,-2.8,30.08,SW,232,26.0,33.0,19,0.00,,,0.00,Wunderground v.1.15,2013-11-06 00:00:00,
2013-11-05 17:10:00,35.2,-1.9,30.10,WSW,249,20.0,22.0,20,0.00,,,0.00,Wunderground v.1.15,2013-11-06 00:10:00,
2013-11-05 17:15:00,35.0,-2.1,30.10,SSW,211,18.0,22.0,20,0.00,,,0.00,Wunderground v.1.15,2013-11-06 00:15:00,
2013-11-05 17:25:00,34.7,-2.4,30.10,SW,218,12.0,15.0,20,0.00,,,0.00,Wunderground v.1.15,2013-11-06 00:25:00,
2013-11-05 17:30:00,34.7,-3.4,30.10,SW,226,13.0,21.0,19,0.00,,,0.00,Wunderground v.1.15,2013-11-06 00:30:00,
2013-11-05 17:35:00,34.6,-2.4,30.11,WSW,241,14.0,26.0,20,0.00,,,0.00,Wunderground v.1.15,2013-11-06 00:35:00,
2013-11-05 17:40:00,34.6,-2.4,30.11,SW,226,15.0,15.0,20,0.00,,,0.00,Wunderground v.1.15,2013-11-06 00:40:00,
2013-11-05 17:50:00,34.3,-2.7,30.11,SW,226,13.0,19.0,20,0.00,,,0.00,Wunderground v.1.15,2013-11-06 00:50:00,
2013-11-05 17:55:00,34.4,-3.7,30.11,SW,229,18.0,19.0,19,0.00,,,0.00,Wunderground v.1.15,2013-11-06 00:55:00,
2013-11-05 18:00:00,34.1,-2.9,30.11,SW,230,19.0,22.0,20,0.00,,,0.00,Wunderground v.1.15,2013-11-06 01:00:00,
2013-11-05 18:10:00,33.7,-3.2,30.12,WSW,239,17.0,17.0,20,0.00,,,0.00,Wunderground v.1.15,2013-11-06 01:10:00,
2013-11-05 18:20:00,33.3,-2.5,30.13,SW,217,13.0,13.0,21,0.00,,,0.00,Wunderground v.1.15,2013-11-06 01:20:00,
2013-11-05 18:30:00,32.8,-2.0,30.14,SW,228,7.0,7.0,22,0.00,,,0.00,Wunderground v.1.15,2013-11-06 01:30:00,
2013-11-05 18:45:00,31.7,-1.0,30.14,ENE,63,3.0,3.0,24,0.00,,,0.00,Wunderground v.1.15,2013-11-06 01:45:00,
2013-11-05 18:50:00,32.0,-1.7,30.15,ENE,62,2.0,3.0,23,0.00,,,0.00,Wunderground v.1.15,2013-11-06 01:50:00,
2013-11-05 18:55:00,31.8,-1.0,30.15,East,89,1.0,5.0,24,0.00,,,0.00,Wunderground v.1.15,2013-11-06 01:55:00,
2013-11-05 19:00:00,31.7,-0.2,30.14,ENE,76,5.0,8.0,25,0.00,,,0.00,Wunderground v.1.15,2013-11-06 02:00:00,
2013-11-05 19:20:00,29.4,10.1,30.15,NE,50,11.0,11.0,44,0.00,,,0.00,Wunderground v.1.15,2013-11-06 02:20:00,
2013-11-05 19:25:00,28.7,10.5,30.16,ENE,67,12.0,12.0,46,0.00,,,0.00,Wunderground v.1.15,2013-11-06 02:25:00,
2013-11-05 19:30:00,28.3,11.1,30.16,ENE,58,11.0,11.0,48,0.00,,,0.00,Wunderground v.1.15,2013-11-06 02:30:00,
2013-11-05 19:35:00,28.1,11.4,30.16,ENE,71,10.0,11.0,49,0.00,,,0.00,Wunderground v.1.15,2013-11-06 02:35:00,
2013-11-05 19:40:00,27.9,11.2,30.16,ENE,67,10.0,10.0,49,0.00,,,0.00,Wunderground v.1.15,2013-11-06 02:40:00,
2013-11-05 19:50:00,27.3,11.5,30.16,ESE,120,5.0,5.0,51,0.00,,,0.00,Wunderground v.1.15,2013-11-06 02:50:00,
2013-11-05 19:55:00,27.2,11.4,30.16,East,96,5.0,6.0,51,0.00,,,0.00,Wunderground v.1.15,2013-11-06 02:55:00,
2013-11-05 20:00:00,27.1,11.3,30.16,East,86,6.0,7.0,51,0.00,,,0.00,Wunderground v.1.15,2013-11-06 03:00:00,
2013-11-05 20:10:00,27.3,11.5,30.16,East,79,9.0,9.0,51,0.00,,,0.00,Wunderground v.1.15,2013-11-06 03:10:00,
2013-11-05 20:16:00,27.2,11.4,30.16,ENE,78,9.0,11.0,51,0.00,,,0.00,Wunderground v.1.15,2013-11-06 03:16:00,
2013-11-05 20:25:00,27.3,11.1,30.16,NE,51,10.0,10.0,50,0.00,,,0.00,Wunderground v.1.15,2013-11-06 03:25:00,
2013-11-05 20:35:00,27.1,10.9,30.17,East,100,6.0,8.0,50,0.00,,,0.00,Wunderground v.1.15,2013-11-06 03:35:00,
2013-11-05 20:40:00,26.9,10.7,30.16,SE,125,3.0,3.0,50,0.00,,,0.00,Wunderground v.1.15,2013-11-06 03:40:00,
2013-11-05 20:50:00,26.8,10.6,30.17,SSE,148,1.0,2.0,50,0.00,,,0.00,Wunderground v.1.15,2013-11-06 03:50:00,
2013-11-05 20:55:00,27.2,11.0,30.16,South,177,1.0,2.0,50,0.00,,,0.00,Wunderground v.1.15,2013-11-06 03:55:00,
2013-11-05 21:00:00,27.2,10.5,30.16,South,177,2.0,2.0,49,0.00,,,0.00,Wunderground v.1.15,2013-11-06 04:00:00,
2013-11-05 21:05:00,27.4,10.7,30.16,South,181,2.0,2.0,49,0.00,,,0.00,Wunderground v.1.15,2013-11-06 04:05:00,
2013-11-05 21:11:00,27.5,10.4,30.16,South,189,3.0,4.0,48,0.00,,,0.00,Wunderground v.1.15,2013-11-06 04:11:00,
2013-11-05 21:16:00,27.5,10.8,30.16,South,190,3.0,4.0,49,0.00,,,0.00,Wunderground v.1.15,2013-11-06 04:16:00,
2013-11-05 21:25:00,27.6,10.4,30.16,South,190,3.0,5.0,48,0.00,,,0.00,Wunderground v.1.15,2013-11-06 04:25:00,
2013-11-05 21:30:00,27.9,9.3,30.16,SW,231,4.0,5.0,45,0.00,,,0.00,Wunderground v.1.15,2013-11-06 04:30:00,
2013-11-05 21:40:00,28.2,9.0,30.16,SW,221,4.0,4.0,44,0.00,,,0.00,Wunderground v.1.15,2013-11-06 04:40:00,
2013-11-05 21:50:00,28.1,9.5,30.16,SSW,211,2.0,2.0,45,0.00,,,0.00,Wunderground v.1.15,2013-11-06 04:50:00,
2013-11-05 21:55:00,28.3,8.6,30.16,SSW,211,2.0,3.0,43,0.00,,,0.00,Wunderground v.1.15,2013-11-06 04:55:00,
2013-11-05 22:00:00,28.1,9.5,30.16,SSW,207,3.0,3.0,45,0.00,,,0.00,Wunderground v.1.15,2013-11-06 05:00:00,
2013-11-05 22:05:00,28.1,8.4,30.16,SSW,207,4.0,4.0,43,0.00,,,0.00,Wunderground v.1.15,2013-11-06 05:05:00,
2013-11-05 22:11:00,29.0,7.7,30.16,SSW,200,4.0,6.0,40,0.00,,,0.00,Wunderground v.1.15,2013-11-06 05:11:00,
2013-11-05 22:20:00,29.2,2.3,30.15,SSW,213,6.0,6.0,31,0.00,,,0.00,Wunderground v.1.15,2013-11-06 05:20:00,
2013-11-05 22:25:00,29.4,7.5,30.15,South,190,5.0,6.0,39,0.00,,,0.00,Wunderground v.1.15,2013-11-06 05:25:00,
2013-11-05 22:30:00,29.6,4.0,30.15,South,181,4.0,4.0,33,0.00,,,0.00,Wunderground v.1.15,2013-11-06 05:30:00,
2013-11-05 22:40:00,29.7,5.3,30.15,SSW,194,4.0,4.0,35,0.00,,,0.00,Wunderground v.1.15,2013-11-06 05:40:00,
2013-11-05 22:45:00,29.8,4.1,30.15,SSW,194,3.0,4.0,33,0.00,,,0.00,Wunderground v.1.15,2013-11-06 05:45:00,
2013-11-05 22:50:00,29.9,4.2,30.15,SSW,204,3.0,7.0,33,0.00,,,0.00,Wunderground v.1.15,2013-11-06 05:50:00,
2013-11-05 22:55:00,29.7,2.0,30.15,SSW,204,4.0,7.0,30,0.00,,,0.00,Wunderground v.1.15,2013-11-06 05:55:00,
2013-11-05 23:00:00,31.3,0.3,30.15,SSW,197,5.0,5.0,26,0.00,,,0.00,Wunderground v.1.15,2013-11-06 06:00:00,
2013-11-05 23:10:00,31.4,0.4,30.15,South,176,4.0,4.0,26,0.00,,,0.00,Wunderground v.1.15,2013-11-06 06:10:00,
2013-11-05 23:16:00,31.5,1.3,30.14,South,181,3.0,4.0,27,0.00,,,0.00,Wunderground v.1.15,2013-11-06 06:16:00,
2013-11-05 23:25:00,31.3,0.3,30.15,SSW,198,4.0,4.0,26,0.00,,,0.00,Wunderground v.1.15,2013-11-06 06:25:00,
2013-11-05 23:30:00,31.6,0.6,30.15,South,191,5.0,5.0,26,0.00,,,0.00,Wunderground v.1.15,2013-11-06 06:30:00,
2013-11-05 23:35:00,31.4,1.2,30.15,South,184,5.0,5.0,27,0.00,,,0.00,Wunderground v.1.15,2013-11-06 06:35:00,
2013-11-05 23:40:00,31.5,1.3,30.15,SW,218,4.0,7.0,27,0.00,,,0.00,Wunderground v.1.15,2013-11-06 06:40:00,
2013-11-05 23:50:00,30.8,3.7,30.13,SW,231,13.0,24.0,31,0.00,,,0.00,Wunderground v.1.15,2013-11-06 06:50:00,
2013-11-05 23:55:00,32.3,1.2,30.13,SSW,207,23.0,24.0,26,0.00,,,0.00,Wunderground v.1.15,2013-11-06 06:55:00,